This is the latest recevied weather packets stored in our database for station/object KE0PRS. If no packets are shown the sender has not sent any weather packets the latest 10 day(s).
| Time | Temp. | Humidity | Pressure | Rain* | Wind** | Luminosity | Snow |
|---|---|---|---|---|---|---|---|
| 1777649817 | 15° C | 55% | 1020.7 hPa | 0 mm | - | 516 W/m² | - |
| 1777649514 | 15° C | 53% | 1020.8 hPa | 0 mm | - | 500 W/m² | - |
| 1777649210 | 14.44° C | 55% | 1020.7 hPa | 0 mm | - | 486 W/m² | - |
| 1777648907 | 13.89° C | 55% | 1020.6 hPa | 0 mm | - | 368 W/m² | - |
| 1777648605 | 13.89° C | 55% | 1020.9 hPa | 0 mm | - | 405 W/m² | - |
| 1777648301 | 13.33° C | 58% | 1020.8 hPa | 0 mm | - | 449 W/m² | - |
| 1777647998 | 13.33° C | 58% | 1021 hPa | 0 mm | - | 444 W/m² | - |
| 1777647694 | 13.33° C | 59% | 1021 hPa | 0 mm | - | 416 W/m² | - |
| 1777647390 | 12.78° C | 61% | 1020.9 hPa | 0 mm | - | 389 W/m² | - |
| 1777647088 | 12.78° C | 61% | 1020.9 hPa | 0 mm | - | 370 W/m² | - |
| 1777646784 | 12.78° C | 59% | 1020.9 hPa | 0 mm | - | 353 W/m² | - |
| 1777646484 | 12.22° C | 61% | 1020.8 hPa | 0 mm | - | 336 W/m² | - |
| 1777646180 | 12.22° C | 62% | 1020.8 hPa | 0 mm | - | 320 W/m² | - |
| 1777645878 | 12.22° C | 62% | 1020.8 hPa | 0 mm | - | 308 W/m² | - |
| 1777645575 | 11.67° C | 63% | 1021.1 hPa | 0 mm | - | 293 W/m² | - |
| 1777645271 | 11.67° C | 62% | 1021 hPa | 0 mm | - | 279 W/m² | - |
| 1777644967 | 11.11° C | 63% | 1020.9 hPa | 0 mm | - | 265 W/m² | - |
| 1777644665 | 11.11° C | 62% | 1021 hPa | 0 mm | - | 253 W/m² | - |
| 1777644360 | 11.11° C | 63% | 1021.1 hPa | 0 mm | - | 224 W/m² | - |
| 1777644057 | 10.56° C | 63% | 1020.9 hPa | 0 mm | - | 228 W/m² | - |
| 1777643754 | 10.56° C | 63% | 1020.9 hPa | 0 mm | - | 216 W/m² | - |
| 1777643451 | 10.56° C | 64% | 1021 hPa | 0 mm | - | 205 W/m² | - |
| 1777643148 | 10.56° C | 65% | 1021 hPa | 0 mm | - | 192 W/m² | - |
| 1777642844 | 10° C | 65% | 1020.9 hPa | 0 mm | - | 197 W/m² | - |
| 1777642542 | 10° C | 66% | 1021.1 hPa | 0 mm | - | 200 W/m² | - |
* Rain latest hour (hover to see other rain measurements)
** Current wind speed in m/s (hover to see current wind gust speed)